STARLINK-35111

Last updated on Thu Oct 02 2025 00:02:05 GMT+0000 (Coordinated Universal Time)

1 65463U 25195F 25274.27627375 .00169343 00000+0 29820-2 0 9993 2 65463 53.1585 281.7030 0001434 43.8051 316.3072 15.49359635 5543

Satellite not in orbit

STARLINK-35111